{"data":{"norad_id":49961,"intl_designator":"2021-122A","name":"SHIJIAN-6 05A (SJ-6 05A)","alt_names":[],"object_type":"PAYLOAD","status":"ACTIVE","operator":null,"country":"PRC","launch_date":"2021-12-10","launch_site_code":"JSC","launch_vehicle":null,"mission":null,"orbit_class":"UNKNOWN","rcs_meters":null,"size_class":null,"mass_kg":null,"dimensions":null,"purposes":[],"wikipedia_slug":null,"has_3d_model":false,"image_url":null,"decayed_at":null,"tle_current":{"epoch":"2026-05-25T04:03:55.378080Z","epoch_age_seconds":54349,"freshness":"FRESH","line1":"1 49961U 21122A   26145.16939095  .00001364  00000+0  11596-3 0  9995","line2":"2 49961  97.4059 114.8429 0000599 141.9204 218.2062 14.99378381245306","mean_motion":14.99378381,"eccentricity":5.99e-5,"inclination_deg":97.4059,"raan_deg":114.8429,"arg_perigee_deg":141.9204,"mean_anomaly_deg":218.2062,"bstar":0.00011596,"rev_number":24530,"period_min":96.03980010967,"perigee_km":568.39962591237,"apogee_km":569.23187085162,"semimajor_km":6946.952748382,"source":"CELESTRAK","updated_at":"2026-05-25T13:37:57.277877Z"}}}